This demonstration page uses our WeatherBlox Daily Observations layout. Learn more.

Hourly Observations for March 1, 2020

Temp ( °F °C ) Dew Point ( °F °C ) Humidity (%) Winds ( mph kmh ) Pressure ( in mb ) Visibility ( mi km ) Precip ( " mm )
12:15 am 00:15 Clear 32 0 18 -8 55 55 NW 15 24 30.19 1022 10 16.0934 0 0
12:35 am 00:35 Clear 32 0 18 -8 55 55 NW 17 28 30.19 1022 10 16.0934 0 0
12:55 am 00:55 Clear 32 0 18 -8 55 55 NNW 15 24 30.2 1023 10 16.0934 0 0
1:15 am 01:15 Clear 32 0 18 -8 55 55 NNW 12 19 30.21 1023 10 16.0934 0 0
1:35 am 01:35 Clear 30 -1 18 -8 59 59 NNW 12 19 30.21 1023 10 16.0934 0 0
1:55 am 01:55 Clear 32 0 18 -8 55 55 NNW 9 15 30.22 1023 10 16.0934 0 0
2:15 am 02:15 Clear 30 -1 18 -8 59 59 NNW 5 7 30.22 1023 10 16.0934 0 0
2:35 am 02:35 Clear 30 -1 18 -8 59 59 NNW 6 9 30.22 1023 10 16.0934 0 0
2:55 am 02:55 Clear 28 -2 18 -8 64 64 NNW 3 6 30.23 1024 10 16.0934 0 0
3:15 am 03:15 Clear 30 -1 18 -8 59 59 NNW 3 6 30.22 1023 10 16.0934 0 0
3:35 am 03:35 Clear 28 -2 18 -8 64 64 NNW 3 6 30.23 1024 10 16.0934 0 0
3:55 am 03:55 Clear 28 -2 18 -8 64 64 Calm 30.24 1024 10 16.0934 0 0
4:15 am 04:15 Clear 28 -2 18 -8 64 64 Calm 30.24 1024 10 16.0934 0 0
4:35 am 04:35 Clear 28 -2 18 -8 64 64 Calm 30.25 1024 10 16.0934 0 0
4:55 am 04:55 Clear 28 -2 18 -8 64 64 Calm 30.25 1024 10 16.0934 0 0
5:15 am 05:15 Clear 27 -3 18 -8 69 69 SSW 3 6 30.25 1024 10 16.0934 0 0
5:35 am 05:35 Clear 25 -4 19 -7 80 80 Calm 30.26 1025 10 16.0934 0 0
5:55 am 05:55 Clear 25 -4 19 -7 80 80 SW 3 6 30.26 1025 10 16.0934 0 0
6:15 am 06:15 Clear 27 -3 18 -8 69 69 WNW 5 7 30.27 1025 10 16.0934 0 0
6:35 am 06:35 Clear 21 -6 19 -7 93 93 WNW 6 9 30.27 1025 10 16.0934 0 0
6:55 am 06:55 Sunny 23 -5 19 -7 86 86 W 3 6 30.28 1025 10 16.0934 0 0
7:15 am 07:15 Sunny 21 -6 18 -8 86 86 W 6 9 30.29 1026 10 16.0934 0 0
7:35 am 07:35 Sunny 27 -3 21 -6 80 80 W 5 7 30.29 1026 10 16.0934 0 0
7:55 am 07:55 Sunny 30 -1 19 -7 64 64 SW 3 6 30.29 1026 10 16.0934 0 0
8:15 am 08:15 Sunny 32 0 19 -7 60 60 WSW 3 6 30.3 1026 10 16.0934 0 0
8:35 am 08:35 Sunny 32 0 18 -8 55 55 SW 7 11 30.3 1026 10 16.0934 0 0
8:55 am 08:55 Sunny 34 1 18 -8 51 51 SSW 7 11 30.31 1026 10 16.0934 0 0
9:15 am 09:15 Sunny 36 2 18 -8 48 48 SW 9 15 30.31 1026 10 16.0934 0 0
9:35 am 09:35 Sunny 36 2 18 -8 48 48 WSW 6 9 30.31 1026 10 16.0934 0 0
9:55 am 09:55 Sunny 37 3 16 -9 41 41 W 8 13 30.3 1026 10 16.0934 0 0
10:15 am 10:15 Sunny 37 3 16 -9 41 41 WNW 12 19 30.3 1026 10 16.0934 0 0
10:35 am 10:35 Sunny 39 4 16 -9 39 39 W 10 17 30.29 1026 10 16.0934 0 0
10:55 am 10:55 Sunny 41 5 18 -8 39 39 NW 8 13 30.27 1025 10 16.0934 0 0
11:15 am 11:15 Sunny 41 5 16 -9 36 36 WNW 8 13 30.27 1025 10 16.0934 0 0
11:35 am 11:35 Sunny 43 6 18 -8 36 36 WNW 6 9 30.27 1025 10 16.0934 0 0
11:55 am 11:55 Sunny 43 6 18 -8 36 36 NW 8 13 30.27 1025 10 16.0934 0 0
12:15 pm 12:15 Sunny 45 7 18 -8 34 34 W 5 7 30.26 1025 10 16.0934 0 0
12:35 pm 12:35 Sunny 45 7 18 -8 34 34 WSW 8 13 30.24 1024 10 16.0934 0 0
12:55 pm 12:55 Sunny 45 7 18 -8 34 34 W 7 11 30.23 1024 10 16.0934 0 0
1:15 pm 13:15 Sunny 46 8 19 -7 34 34 NW 9 15 30.22 1023 10 16.0934 0 0
1:35 pm 13:35 Sunny 46 8 19 -7 34 34 NW 8 13 30.21 1023 10 16.0934 0 0
1:55 pm 13:55 Sunny 48 9 19 -7 32 32 W 10 17 30.2 1023 10 16.0934 0 0
2:15 pm 14:15 Sunny 50 10 19 -7 30 30 WNW 5 7 30.19 1022 10 16.0934 0 0
2:35 pm 14:35 Sunny 50 10 19 -7 30 30 W 5 7 30.18 1022 10 16.0934 0 0
2:55 pm 14:55 Sunny 50 10 19 -7 30 30 W 6 9 30.17 1022 10 16.0934 0 0
3:15 pm 15:15 Sunny 50 10 18 -8 28 28 W 5 7 30.17 1022 10 16.0934 0 0
3:35 pm 15:35 Sunny 52 11 18 -8 26 26 Calm 30.16 1021 10 16.0934 0 0
3:55 pm 15:55 Sunny 52 11 19 -7 28 28 W 9 15 30.15 1021 10 16.0934 0 0
4:15 pm 16:15 Sunny 52 11 18 -8 26 26 SW 6 9 30.15 1021 10 16.0934 0 0
4:35 pm 16:35 Sunny 52 11 18 -8 26 26 SW 8 13 30.15 1021 10 16.0934 0 0
4:55 pm 16:55 Sunny 52 11 18 -8 26 26 SSW 8 13 30.15 1021 10 16.0934 0 0
5:15 pm 17:15 Sunny 52 11 18 -8 26 26 SSW 6 9 30.15 1021 10 16.0934 0 0
5:35 pm 17:35 Sunny 52 11 19 -7 28 28 S 8 13 30.15 1021 10 16.0934 0 0
5:55 pm 17:55 Sunny 50 10 19 -7 30 30 S 9 15 30.16 1021 10 16.0934 0 0
6:15 pm 18:15 Clear 46 8 19 -7 34 34 S 7 11 30.16 1021 10 16.0934 0 0
6:35 pm 18:35 Clear 46 8 19 -7 34 34 S 7 11 30.17 1022 10 16.0934 0 0
6:55 pm 18:55 Clear 46 8 19 -7 34 34 S 6 9 30.17 1022 10 16.0934 0 0
7:15 pm 19:15 Clear 46 8 19 -7 34 34 S 6 9 30.18 1022 10 16.0934 0 0
7:35 pm 19:35 Clear 45 7 19 -7 37 37 SSW 3 6 30.18 1022 10 16.0934 0 0
7:55 pm 19:55 Clear 41 5 19 -7 42 42 SSW 3 6 30.17 1022 10 16.0934 0 0
8:15 pm 20:15 Clear 43 6 19 -7 39 39 S 6 9 30.17 1022 10 16.0934 0 0
8:35 pm 20:35 Clear 41 5 19 -7 42 42 S 6 9 30.16 1021 10 16.0934 0 0
8:55 pm 20:55 Clear 39 4 21 -6 48 48 SSW 6 9 30.17 1022 10 16.0934 0 0
9:15 pm 21:15 Clear 41 5 19 -7 42 42 S 6 9 30.16 1021 10 16.0934 0 0
9:35 pm 21:35 Clear 41 5 19 -7 42 42 S 6 9 30.15 1021 10 16.0934 0 0
9:55 pm 21:55 Clear 39 4 19 -7 45 45 SSW 6 9 30.16 1021 10 16.0934 0 0
10:15 pm 22:15 Clear 39 4 19 -7 45 45 S 5 7 30.16 1021 10 16.0934 0 0
10:35 pm 22:35 Clear 41 5 18 -8 39 39 S 5 7 30.14 1021 10 16.0934 0 0
10:55 pm 22:55 Clear 39 4 19 -7 45 45 S 5 7 30.15 1021 10 16.0934 0 0
11:15 pm 23:15 Clear 37 3 19 -7 48 48 S 6 9 30.14 1021 10 16.0934 0 0
11:35 pm 23:35 Clear 37 3 19 -7 48 48 S 6 9 30.13 1020 10 16.0934 0 0
11:55 pm 23:55 Clear 36 2 19 -7 52 52 SSW 7 11 30.13 1020 10 16.0934 0 0

Powered by AerisWeather